FW7716 Weather Reports


Display with metric or nautical units.
time (UTC)temp
F
wind
direction
speed
MPH
gust
MPH
rain 1hr
in
rain 24hr
in
rain mn
in
humidity
%
barometer
mb
20260506194546 77 152 2.0 10.0 0.00 0.00 0.00 48 1012.2
20260506193036 75 221 3.0 10.0 0.00 0.00 0.00 47 1012.6
20260506191536 76 74 2.0 8.0 0.00 0.00 0.00 45 1012.8
20260506190040 74 133 0.0 8.0 0.00 0.00 0.00 49 1012.9
20260506184539 72 202 0.0 11.0 0.00 0.00 0.00 47 1013.3
20260506183039 72 0 1.0 4.0 0.00 0.00 0.00 46 1013.4
20260506181539 71 0 0.0 6.0 0.00 0.00 0.00 46 1013.4
20260506180044 70 313 1.0 5.0 0.00 0.00 0.00 46 1013.5
20260506174538 69 0 0.0 6.0 0.00 0.00 0.00 46 1013.6
20260506173046 69 0 0.0 4.0 0.00 0.00 0.00 46 1013.9
20260506171547 67 0 1.0 5.0 0.00 0.00 0.00 47 1014.0
20260506170038 65 121 0.0 5.0 0.00 0.00 0.00 49 1014.0
20260506164547 63 0 0.0 6.0 0.00 0.00 0.00 54 1014.1
20260506163043 62 0 0.0 3.0 0.00 0.00 0.00 55 1014.2
20260506161540 60 0 0.0 5.0 0.00 0.00 0.00 59 1014.3
20260506160047 60 0 0.0 2.0 0.00 0.00 0.00 60 1014.3
20260506154549 58 164 0.0 1.0 0.00 0.00 0.00 63 1014.2
20260506153035 56 0 0.0 1.0 0.00 0.00 0.00 68 1014.3
20260506151542 55 279 0.0 1.0 0.00 0.00 0.00 69 1014.4
20260506150038 53 0 0.0 2.0 0.00 0.00 0.00 69 1014.6
20260506144539 53 188 0.0 1.0 0.00 0.00 0.00 71 1014.5
20260506143038 53 0 0.0 0.0 0.00 0.00 0.00 74 1014.4
20260506141601 48 0 0.0 0.0 0.00 0.00 0.00 83 1014.6
20260506140042 46 0 0.0 0.0 0.00 0.00 0.00 87 1014.4
20260506134542 44 0 0.0 0.0 0.00 0.00 0.00 88 1014.4
20260506133039 42 0 0.0 0.0 0.00 0.00 0.00 87 1014.4
20260506131538 42 0 0.0 0.0 0.00 0.00 0.00 87 1014.3
20260506130044 42 0 0.0 1.0 0.00 0.00 0.00 87 1014.1
20260506124541 41 0 0.0 0.0 0.00 0.00 0.00 87 1013.9
20260506123042 42 0 0.0 1.0 0.00 0.00 0.00 88 1013.9
20260506121538 41 0 0.0 0.0 0.00 0.00 0.00 87 1013.8
20260506120105 42 0 0.0 0.0 0.00 0.00 0.00 86 1013.7
20260506114545 42 0 0.0 0.0 0.00 0.00 0.00 86 1013.5
20260506113040 43 0 0.0 0.0 0.00 0.00 0.00 85 1013.5
20260506111540 43 0 0.0 0.0 0.00 0.00 0.00 86 1013.5
20260506110034 43 0 0.0 0.0 0.00 0.00 0.00 85 1013.5
20260506104533 44 0 0.0 0.0 0.00 0.00 0.00 84 1013.4
20260506103042 44 0 0.0 0.0 0.00 0.00 0.00 84 1013.3
20260506101538 45 0 0.0 0.0 0.00 0.00 0.00 83 1013.4
20260506100040 45 0 0.0 0.0 0.00 0.00 0.00 83 1013.3
20260506094537 45 0 0.0 0.0 0.00 0.00 0.00 82 1013.4
20260506093044 46 0 0.0 0.0 0.00 0.00 0.00 81 1013.4
20260506091542 46 0 0.0 0.0 0.00 0.00 0.00 79 1013.4
20260506090042 47 0 0.0 0.0 0.00 0.00 0.00 79 1013.2
20260506084538 47 0 0.0 0.0 0.00 0.00 0.00 80 1013.2
20260506083041 47 0 0.0 0.0 0.00 0.00 0.00 79 1013.1
20260506081546 48 0 0.0 0.0 0.00 0.00 0.00 80 1013.1
20260506073039 49 0 0.0 0.0 0.00 0.00 0.00 80 1012.8
20260506071542 49 0 0.0 0.0 0.00 0.00 0.00 77 1012.8
20260506061539 52 0 0.0 0.0 0.00 0.00 0.00 73 1012.3
20260506044549 57 0 0.0 1.0 0.00 0.00 0.00 65 1011.6
20260506043045 57 0 0.0 1.0 0.00 0.00 0.00 64 1011.6
20260506041548 58 0 0.0 0.0 0.00 0.00 0.00 64 1011.5
20260506040043 60 0 0.0 0.0 0.00 0.00 0.00 61 1011.2
20260506034539 62 0 0.0 0.0 0.00 0.00 0.00 59 1011.1
20260506033036 64 0 0.0 1.0 0.00 0.00 0.00 58 1010.8
20260506031555 66 0 0.0 1.0 0.00 0.00 0.00 52 1010.7
20260506030053 70 0 0.0 0.0 0.00 0.00 0.00 47 1010.7
20260506024542 73 0 0.0 0.0 0.00 0.00 0.00 42 1010.4
20260506023039 76 0 0.0 0.0 0.00 0.00 0.00 38 1010.4
20260506021537 76 0 0.0 0.0 0.00 0.00 0.00 35 1010.3
20260506020033 76 0 0.0 1.0 0.00 0.00 0.00 33 1010.4
20260506014540 76 128 0.0 2.0 0.00 0.00 0.00 32 1010.3
20260506013045 75 126 1.0 2.0 0.00 0.00 0.00 32 1010.4
20260506011537 75 0 0.0 2.0 0.00 0.00 0.00 33 1010.4
20260506010036 75 0 0.0 5.0 0.00 0.00 0.00 33 1010.7
20260506004610 75 174 2.0 5.0 0.00 0.00 0.00 32 1010.7
20260506003042 76 0 0.0 4.0 0.00 0.00 0.00 31 1011.1
20260506001540 77 130 0.0 4.0 0.00 0.00 0.00 29 1011.2
20260506000044 76 193 1.0 8.0 0.00 0.00 0.00 31 1011.3
20260505234605 76 151 3.0 7.0 0.00 0.00 0.00 33 1011.5
20260505233041 75 196 5.0 9.0 0.00 0.00 0.00 30 1011.6
20260505231541 74 269 0.0 1.0 0.00 0.00 0.00 34 1011.7
20260505230040 74 79 0.0 3.0 0.00 0.00 0.00 32 1011.9
20260505224539 74 38 0.0 4.0 0.00 0.00 0.00 30 1012.0
20260505223040 76 113 1.0 6.0 0.00 0.00 0.00 33 1012.1
20260505221551 77 107 1.0 7.0 0.00 0.00 0.00 30 1012.1
20260505220043 78 66 2.0 7.0 0.00 0.00 0.00 31 1012.3
20260505214542 75 82 2.0 10.0 0.00 0.00 0.00 31 1012.4
20260505213035 74 71 2.0 12.0 0.00 0.00 0.00 33 1012.8
20260505211535 76 56 2.0 8.0 0.00 0.00 0.00 33 1012.8
20260505210043 74 49 3.0 11.0 0.00 0.00 0.00 34 1013.1
20260505204539 75 66 3.0 9.0 0.00 0.00 0.00 33 1013.1
20260505203039 74 254 3.0 10.0 0.00 0.00 0.00 34 1013.3
20260505201535 73 108 1.0 12.0 0.00 0.00 0.00 36 1013.4
20260505200045 72 266 2.0 10.0 0.00 0.00 0.00 34 1013.4